Location: Unspecified
(42.9300°N, 71.1866°W)
Time: 20:05:23
(UTC-04:00)

Genesis I - Visible Passes

Search period start: 27 May 2016 00:00
Search period end: 06 June 2016 00:00
Orbit: 495 x 541 km, 64.5° (Epoch: 27 May)

Date Brightness Start Highest point End Pass type
(mag) Time Alt. Az. Time Alt. Az. Time Alt. Az.
27 May 5.8 00:14:29 10° N 00:17:07 17° NE 00:19:00 13° ENE visible
27 May 4.2 01:51:19 10° NW 01:53:59 39° WNW 01:53:59 39° WNW visible
27 May 5.7 23:59:22 10° N 00:02:04 17° NE 00:03:45 14° ENE visible
28 May 4.4 01:36:15 10° NW 01:38:43 35° NW 01:38:43 35° NW visible
28 May 5.6 23:44:16 10° N 23:47:01 18° NE 23:48:35 14° ENE visible
29 May 4.5 01:21:11 10° NW 01:23:34 33° WNW 01:23:34 33° WNW visible
29 May 5.5 23:29:09 10° N 23:31:57 18° NE 23:33:29 15° ENE visible
30 May 4.6 01:06:08 10° NW 01:08:29 32° WNW 01:08:29 32° WNW visible
30 May 5.4 23:14:02 10° N 23:16:54 19° NE 23:18:27 15° ENE visible
31 May 4.6 00:51:04 10° NW 00:53:28 32° WNW 00:53:28 32° WNW visible
31 May 5.4 22:58:55 10° N 23:01:50 19° NE 23:03:29 15° ENE visible
01 Jun 4.5 00:36:00 10° NW 00:38:29 33° WNW 00:38:29 33° WNW visible
01 Jun 5.3 22:43:48 10° N 22:46:46 20° NE 22:48:33 15° ENE visible
02 Jun 4.4 00:20:56 10° NW 00:23:34 35° WNW 00:23:34 35° WNW visible
02 Jun 5.3 22:28:41 10° N 22:31:42 20° NE 22:33:40 15° E visible
03 Jun 4.3 00:05:51 10° NW 00:08:40 37° WNW 00:08:40 37° WNW visible
03 Jun 5.2 22:13:33 10° N 22:16:38 21° NE 22:18:49 14° E visible
03 Jun 4.2 23:50:47 10° NW 23:53:50 39° W 23:53:50 39° W visible
04 Jun 5.1 21:58:26 10° N 22:01:34 21° NE 22:04:01 13° E visible
04 Jun 4.0 23:35:43 10° NW 23:39:02 40° W 23:39:02 40° W visible
05 Jun 5.1 21:43:19 10° N 21:46:29 22° NE 21:49:15 12° E visible
05 Jun 4.0 23:20:39 10° NW 23:24:16 40° WSW 23:24:16 40° WSW visible
